Directory Listing
Index of /dewikivoyage/20260201/

Index of /dewikivoyage/20260201/


../
dewikivoyage-20260201-all-titles-in-ns0.gz         02-Feb-2026 03:45    176K
dewikivoyage-20260201-all-titles.gz                02-Feb-2026 03:45    691K
dewikivoyage-20260201-babel.sql.gz                 02-Feb-2026 03:00    2157
dewikivoyage-20260201-category.sql.gz              02-Feb-2026 02:59     76K
dewikivoyage-20260201-categorylinks.sql.gz         02-Feb-2026 02:59      3M
dewikivoyage-20260201-change_tag.sql.gz            02-Feb-2026 03:00      3M
dewikivoyage-20260201-change_tag_def.sql.gz        02-Feb-2026 03:00    1419
dewikivoyage-20260201-externallinks.sql.gz         02-Feb-2026 02:59      6M
dewikivoyage-20260201-geo_tags.sql.gz              02-Feb-2026 03:00    451K
dewikivoyage-20260201-image.sql.gz                 02-Feb-2026 02:59    105K
dewikivoyage-20260201-imagelinks.sql.gz            02-Feb-2026 02:59      4M
dewikivoyage-20260201-iwlinks.sql.gz               02-Feb-2026 03:00      3M
dewikivoyage-20260201-langlinks.sql.gz             02-Feb-2026 02:59    590K
dewikivoyage-20260201-linktarget.sql.gz            02-Feb-2026 02:59      4M
dewikivoyage-20260201-md5sums.json                 02-Feb-2026 05:32    3144
dewikivoyage-20260201-md5sums.txt                  02-Feb-2026 05:32    2934
dewikivoyage-20260201-page.sql.gz                  02-Feb-2026 02:59      3M
dewikivoyage-20260201-page_props.sql.gz            02-Feb-2026 03:00      1M
dewikivoyage-20260201-page_restrictions.sql.gz     02-Feb-2026 03:00     33K
dewikivoyage-20260201-pagelinks.sql.gz             02-Feb-2026 02:59      4M
dewikivoyage-20260201-pages-articles-multistrea..> 02-Feb-2026 03:18    428K
dewikivoyage-20260201-pages-articles-multistrea..> 02-Feb-2026 03:18     69M
dewikivoyage-20260201-pages-articles.xml.bz2       02-Feb-2026 03:17     67M
dewikivoyage-20260201-pages-articles.xml.bz2.in..> 02-Feb-2026 03:17     58M
dewikivoyage-20260201-pages-logging.xml.gz         02-Feb-2026 03:46      9M
dewikivoyage-20260201-pages-meta-current.xml.bz2   02-Feb-2026 03:44     80M
dewikivoyage-20260201-pages-meta-current.xml.bz..> 02-Feb-2026 03:44     56M
dewikivoyage-20260201-pages-meta-history.xml.7z    02-Feb-2026 05:32    311M
dewikivoyage-20260201-pages-meta-history.xml.bz2   02-Feb-2026 05:18      1G
dewikivoyage-20260201-pages-meta-history.xml.bz..> 02-Feb-2026 03:47     13M
dewikivoyage-20260201-protected_titles.sql.gz      02-Feb-2026 03:00    3253
dewikivoyage-20260201-redirect.sql.gz              02-Feb-2026 03:00    135K
dewikivoyage-20260201-runsettings.txt              01-Feb-2026 22:27      28
dewikivoyage-20260201-sha1sums.json                02-Feb-2026 05:32    3449
dewikivoyage-20260201-sha1sums.txt                 02-Feb-2026 05:32    3238
dewikivoyage-20260201-site_stats.sql.gz            02-Feb-2026 02:59     841
dewikivoyage-20260201-siteinfo-namespaces.json.gz  02-Feb-2026 03:45    6772
dewikivoyage-20260201-siteinfo2-namespacesv2.js..> 02-Feb-2026 03:45    7001
dewikivoyage-20260201-sites.sql.gz                 02-Feb-2026 03:00     23K
dewikivoyage-20260201-stub-articles.xml.gz         01-Feb-2026 22:51      5M
dewikivoyage-20260201-stub-meta-current.xml.gz     01-Feb-2026 22:51     10M
dewikivoyage-20260201-stub-meta-history.xml.gz     01-Feb-2026 22:51    127M
dewikivoyage-20260201-templatelinks.sql.gz         02-Feb-2026 02:59      4M
dewikivoyage-20260201-user_former_groups.sql.gz    02-Feb-2026 02:59     918
dewikivoyage-20260201-user_groups.sql.gz           02-Feb-2026 02:59    1972
dewikivoyage-20260201-wbc_entity_usage.sql.gz      02-Feb-2026 03:00     16M
dumpruninfo.json                                   02-Feb-2026 05:32    2562
dumpruninfo.txt                                    02-Feb-2026 05:32    2202
dumpspecialfiles.json                              02-Feb-2026 05:32     133
dumpstatus.json                                    02-Feb-2026 05:32     12K
md5sums-dewikivoyage-20260201-all-titles-in-ns0..> 02-Feb-2026 03:45      77
md5sums-dewikivoyage-20260201-all-titles.gz.txt    02-Feb-2026 03:45      70
md5sums-dewikivoyage-20260201-babel.sql.gz.txt     02-Feb-2026 03:00      69
md5sums-dewikivoyage-20260201-category.sql.gz.txt  02-Feb-2026 02:59      72
md5sums-dewikivoyage-20260201-categorylinks.sql..> 02-Feb-2026 02:59      77
md5sums-dewikivoyage-20260201-change_tag.sql.gz..> 02-Feb-2026 03:00      74
md5sums-dewikivoyage-20260201-change_tag_def.sq..> 02-Feb-2026 03:00      78
md5sums-dewikivoyage-20260201-externallinks.sql..> 02-Feb-2026 02:59      77
md5sums-dewikivoyage-20260201-geo_tags.sql.gz.txt  02-Feb-2026 03:00      72
md5sums-dewikivoyage-20260201-image.sql.gz.txt     02-Feb-2026 02:59      69
md5sums-dewikivoyage-20260201-imagelinks.sql.gz..> 02-Feb-2026 02:59      74
md5sums-dewikivoyage-20260201-iwlinks.sql.gz.txt   02-Feb-2026 03:00      71
md5sums-dewikivoyage-20260201-langlinks.sql.gz.txt 02-Feb-2026 02:59      73
md5sums-dewikivoyage-20260201-linktarget.sql.gz..> 02-Feb-2026 02:59      74
md5sums-dewikivoyage-20260201-page.sql.gz.txt      02-Feb-2026 03:00      68
md5sums-dewikivoyage-20260201-page_props.sql.gz..> 02-Feb-2026 03:00      74
md5sums-dewikivoyage-20260201-page_restrictions..> 02-Feb-2026 03:00      81
md5sums-dewikivoyage-20260201-pagelinks.sql.gz.txt 02-Feb-2026 02:59      73
md5sums-dewikivoyage-20260201-pages-articles-mu..> 02-Feb-2026 03:18      97
md5sums-dewikivoyage-20260201-pages-articles-mu..> 02-Feb-2026 03:18      91
md5sums-dewikivoyage-20260201-pages-articles.xm..> 02-Feb-2026 03:17      79
md5sums-dewikivoyage-20260201-pages-logging.xml..> 02-Feb-2026 03:46      77
md5sums-dewikivoyage-20260201-pages-meta-curren..> 02-Feb-2026 03:44      83
md5sums-dewikivoyage-20260201-pages-meta-histor..> 02-Feb-2026 05:32      82
md5sums-dewikivoyage-20260201-pages-meta-histor..> 02-Feb-2026 05:19      83
md5sums-dewikivoyage-20260201-protected_titles...> 02-Feb-2026 03:00      80
md5sums-dewikivoyage-20260201-redirect.sql.gz.txt  02-Feb-2026 03:00      72
md5sums-dewikivoyage-20260201-site_stats.sql.gz..> 02-Feb-2026 02:59      74
md5sums-dewikivoyage-20260201-siteinfo-namespac..> 02-Feb-2026 03:45      84
md5sums-dewikivoyage-20260201-siteinfo2-namespa..> 02-Feb-2026 03:45      87
md5sums-dewikivoyage-20260201-sites.sql.gz.txt     02-Feb-2026 03:00      69
md5sums-dewikivoyage-20260201-stub-articles.xml..> 01-Feb-2026 22:51      77
md5sums-dewikivoyage-20260201-stub-meta-current..> 01-Feb-2026 22:51      81
md5sums-dewikivoyage-20260201-stub-meta-history..> 01-Feb-2026 22:51      81
md5sums-dewikivoyage-20260201-templatelinks.sql..> 02-Feb-2026 02:59      77
md5sums-dewikivoyage-20260201-user_former_group..> 02-Feb-2026 02:59      82
md5sums-dewikivoyage-20260201-user_groups.sql.g..> 02-Feb-2026 02:59      75
md5sums-dewikivoyage-20260201-wbc_entity_usage...> 02-Feb-2026 03:00      80
report.json                                        02-Feb-2026 05:32    6473
sha1sums-dewikivoyage-20260201-all-titles-in-ns..> 02-Feb-2026 03:45      85
sha1sums-dewikivoyage-20260201-all-titles.gz.txt   02-Feb-2026 03:45      78
sha1sums-dewikivoyage-20260201-babel.sql.gz.txt    02-Feb-2026 03:00      77
sha1sums-dewikivoyage-20260201-category.sql.gz.txt 02-Feb-2026 02:59      80
sha1sums-dewikivoyage-20260201-categorylinks.sq..> 02-Feb-2026 02:59      85
sha1sums-dewikivoyage-20260201-change_tag.sql.g..> 02-Feb-2026 03:00      82
sha1sums-dewikivoyage-20260201-change_tag_def.s..> 02-Feb-2026 03:00      86
sha1sums-dewikivoyage-20260201-externallinks.sq..> 02-Feb-2026 02:59      85
sha1sums-dewikivoyage-20260201-geo_tags.sql.gz.txt 02-Feb-2026 03:00      80
sha1sums-dewikivoyage-20260201-image.sql.gz.txt    02-Feb-2026 02:59      77
sha1sums-dewikivoyage-20260201-imagelinks.sql.g..> 02-Feb-2026 02:59      82
sha1sums-dewikivoyage-20260201-iwlinks.sql.gz.txt  02-Feb-2026 03:00      79
sha1sums-dewikivoyage-20260201-langlinks.sql.gz..> 02-Feb-2026 02:59      81
sha1sums-dewikivoyage-20260201-linktarget.sql.g..> 02-Feb-2026 02:59      82
sha1sums-dewikivoyage-20260201-page.sql.gz.txt     02-Feb-2026 03:00      76
sha1sums-dewikivoyage-20260201-page_props.sql.g..> 02-Feb-2026 03:00      82
sha1sums-dewikivoyage-20260201-page_restriction..> 02-Feb-2026 03:00      89
sha1sums-dewikivoyage-20260201-pagelinks.sql.gz..> 02-Feb-2026 02:59      81
sha1sums-dewikivoyage-20260201-pages-articles-m..> 02-Feb-2026 03:18     105
sha1sums-dewikivoyage-20260201-pages-articles-m..> 02-Feb-2026 03:18      99
sha1sums-dewikivoyage-20260201-pages-articles.x..> 02-Feb-2026 03:17      87
sha1sums-dewikivoyage-20260201-pages-logging.xm..> 02-Feb-2026 03:46      85
sha1sums-dewikivoyage-20260201-pages-meta-curre..> 02-Feb-2026 03:44      91
sha1sums-dewikivoyage-20260201-pages-meta-histo..> 02-Feb-2026 05:32      90
sha1sums-dewikivoyage-20260201-pages-meta-histo..> 02-Feb-2026 05:19      91
sha1sums-dewikivoyage-20260201-protected_titles..> 02-Feb-2026 03:00      88
sha1sums-dewikivoyage-20260201-redirect.sql.gz.txt 02-Feb-2026 03:00      80
sha1sums-dewikivoyage-20260201-site_stats.sql.g..> 02-Feb-2026 02:59      82
sha1sums-dewikivoyage-20260201-siteinfo-namespa..> 02-Feb-2026 03:45      92
sha1sums-dewikivoyage-20260201-siteinfo2-namesp..> 02-Feb-2026 03:45      95
sha1sums-dewikivoyage-20260201-sites.sql.gz.txt    02-Feb-2026 03:00      77
sha1sums-dewikivoyage-20260201-stub-articles.xm..> 01-Feb-2026 22:51      85
sha1sums-dewikivoyage-20260201-stub-meta-curren..> 01-Feb-2026 22:51      89
sha1sums-dewikivoyage-20260201-stub-meta-histor..> 01-Feb-2026 22:51      89
sha1sums-dewikivoyage-20260201-templatelinks.sq..> 02-Feb-2026 02:59      85
sha1sums-dewikivoyage-20260201-user_former_grou..> 02-Feb-2026 02:59      90
sha1sums-dewikivoyage-20260201-user_groups.sql...> 02-Feb-2026 02:59      83
sha1sums-dewikivoyage-20260201-wbc_entity_usage..> 02-Feb-2026 03:00      88
status.html                                        02-Feb-2026 05:32     119
tableinfo.json                                     01-Feb-2026 08:48    1515